DW5244 Weather Reports


time (UTC)temp
C
wind
direction
speed
KPH
gust
KPH
rain 1hr
cm
rain 24hr
cm
rain mn
cm
humidity
%
barometer
mb
20220813161552 31 130 4.8 14.5 0.00 0.00 0.00 38 1011.4
20220813160055 31 15 0.0 6.4 0.00 0.00 0.00 38 1011.3
20220813154549 30 175 8.0 12.9 0.00 0.00 0.00 40 1011.4
20220813153046 28 214 0.0 6.4 0.00 0.00 0.00 43 1011.4
20220813151545 29 263 1.6 9.7 0.00 0.00 0.00 43 1011.4
20220813150101 28 360 1.6 8.0 0.00 0.00 0.00 45 1011.5
20220813144538 27 22 0.0 9.7 0.00 0.00 0.00 48 1011.5
20220813143039 26 327 4.8 12.9 0.00 0.00 0.00 49 1011.6
20220813141529 25 350 11.3 14.5 0.00 0.00 0.00 51 1011.4
20220813140034 25 349 12.9 20.9 0.00 0.00 0.00 50 1011.4
20220813134519 23 330 11.3 17.7 0.00 0.00 0.00 50 1011.5
20220813133032 23 318 9.7 19.3 0.00 0.00 0.00 52 1011.4
20220813131511 22 317 16.1 20.9 0.00 0.00 0.00 51 1011.2
20220813130008 22 345 14.5 19.3 0.00 0.00 0.00 53 1010.9
20220813124505 22 329 16.1 20.9 0.00 0.00 0.00 52 1010.9
20220813123003 22 348 14.5 20.9 0.00 0.00 0.00 51 1010.6
20220813121558 22 329 16.1 20.9 0.00 0.00 0.00 50 1010.4
20220813120115 22 327 16.1 22.5 0.00 0.00 0.00 49 1010.5
20220813114608 22 323 16.1 20.9 0.00 0.00 0.00 49 1010.3
20220813113057 22 325 16.1 20.9 0.00 0.00 0.00 49 1010.2
20220813111602 22 355 14.5 20.9 0.00 0.00 0.00 48 1010.3
20220813110108 22 349 16.1 20.9 0.00 0.00 0.00 48 1010.3
20220813104557 22 315 3.2 9.7 0.00 0.00 0.00 47 1010.2
20220813103047 22 320 0.0 3.2 0.00 0.00 0.00 46 1010.1
20220813101553 22 322 3.2 9.7 0.00 0.00 0.00 46 1010.2
20220813100044 23 23 3.2 8.0 0.00 0.00 0.00 44 1010.1
20220813094540 23 285 6.4 9.7 0.00 0.00 0.00 43 1010.1
20220813093102 23 316 12.9 14.5 0.00 0.00 0.00 43 1009.8
20220813091605 23 302 11.3 16.1 0.00 0.00 0.00 43 1009.7
20220813090042 23 290 8.0 12.9 0.00 0.00 0.00 42 1009.6
20220813084551 24 329 1.6 12.9 0.00 0.00 0.00 42 1009.4
20220813083029 24 305 3.2 9.7 0.00 0.00 0.00 41 1009.5
20220813081535 25 313 3.2 6.4 0.00 0.00 0.00 40 1009.3
20220813080025 25 327 1.6 12.9 0.00 0.00 0.00 39 1009.2
20220813074548 25 9 3.2 12.9 0.00 0.00 0.00 39 1009.1
20220813073034 25 355 4.8 14.5 0.00 0.00 0.00 38 1009.2
20220813071542 25 325 6.4 9.7 0.00 0.00 0.00 38 1009.3
20220813070022 26 314 9.7 14.5 0.00 0.00 0.00 37 1009.3
20220813064516 26 323 8.0 14.5 0.00 0.00 0.00 36 1009.4
20220813063141 26 320 11.3 17.7 0.00 0.00 0.00 35 1009.6
20220813061515 27 301 8.0 14.5 0.00 0.00 0.00 33 1009.7
20220813060004 27 85 0.0 6.4 0.00 0.00 0.00 35 1009.7
20220813054512 27 5 4.8 9.7 0.00 0.00 0.00 34 1009.6
20220813053110 27 5 4.8 17.7 0.00 0.00 0.00 33 1009.5
20220813051603 27 38 4.8 14.5 0.00 0.00 0.00 33 1009.4
20220813050057 27 40 4.8 12.9 0.00 0.00 0.00 32 1009.5
20220813044558 28 11 9.7 19.3 0.00 0.00 0.00 31 1009.4
20220813043102 28 360 11.3 19.3 0.00 0.00 0.00 31 1009.5
20220813041643 28 5 9.7 16.1 0.00 0.00 0.00 30 1009.6
20220813040058 28 13 11.3 19.3 0.00 0.00 0.00 31 1009.4
20220813034617 29 42 4.8 9.7 0.00 0.00 0.00 31 1009.3
20220813033100 29 44 0.0 14.5 0.00 0.00 0.00 31 1009.0
20220813031553 30 111 4.8 12.9 0.00 0.00 0.00 30 1008.7
20220813030054 30 90 3.2 19.3 0.00 0.00 0.00 30 1008.5
20220813024554 30 88 9.7 29.0 0.00 0.00 0.00 29 1008.3
20220813023102 30 119 8.0 24.1 0.00 0.00 0.00 29 1008.2
20220813021551 31 126 8.0 20.9 0.00 0.00 0.00 28 1008.1
20220813020211 31 49 9.7 19.3 0.00 0.00 0.00 26 1008.0
20220813014624 31 63 4.8 20.9 0.00 0.00 0.00 25 1007.8
20220813013048 31 74 9.7 17.7 0.00 0.00 0.00 26 1007.5
20220813011552 32 89 17.7 29.0 0.00 0.00 0.00 25 1007.3
20220813010049 32 73 16.1 32.2 0.00 0.00 0.00 24 1007.2
20220813004546 33 98 16.1 25.7 0.00 0.00 0.00 23 1007.0
20220813003059 33 111 6.4 27.4 0.00 0.00 0.00 23 1007.0
20220813001545 33 81 12.9 32.2 0.00 0.00 0.00 22 1006.9
20220813000051 34 74 12.9 24.1 0.00 0.00 0.00 24 1006.8
20220812234542 34 29 14.5 35.4 0.00 0.00 0.00 23 1006.9
20220812233049 35 142 6.4 17.7 0.00 0.00 0.00 22 1006.8
20220812231540 35 79 14.5 27.4 0.00 0.00 0.00 22 1007.0
20220812230040 35 20 8.0 32.2 0.00 0.00 0.00 24 1007.0
20220812224538 35 55 14.5 25.7 0.00 0.00 0.00 24 1007.2
20220812223034 35 12 9.7 32.2 0.00 0.00 0.00 25 1007.4
20220812221533 35 123 12.9 29.0 0.00 0.00 0.00 26 1007.6
20220812220035 35 26 16.1 27.4 0.00 0.00 0.00 27 1007.8
20220812214539 35 43 9.7 27.4 0.00 0.00 0.00 28 1008.0
20220812213029 34 58 8.0 29.0 0.00 0.00 0.00 29 1008.1
20220812211524 33 78 11.3 24.1 0.00 0.00 0.00 29 1008.4
20220812210035 33 44 16.1 25.7 0.00 0.00 0.00 29 1008.6
20220812204540 34 71 6.4 29.0 0.00 0.00 0.00 27 1008.8
20220812203021 35 9 16.1 38.6 0.00 0.00 0.00 26 1008.6
20220812201517 34 46 6.4 29.0 0.00 0.00 0.00 27 1009.2
20220812200016 34 105 6.4 35.4 0.00 0.00 0.00 26 1009.4
20220812194515 34 101 6.4 25.7 0.00 0.00 0.00 28 1009.7
20220812193013 34 71 16.1 32.2 0.00 0.00 0.00 28 1009.9
20220812191510 34 46 12.9 25.7 0.00 0.00 0.00 28 1010.1
20220812190004 33 57 12.9 29.0 0.00 0.00 0.00 29 1010.4
20220812184508 33 58 1.6 25.7 0.00 0.00 0.00 33 1010.4
20220812183059 33 15 9.7 22.5 0.00 0.00 0.00 33 1010.6
20220812181557 32 144 8.0 20.9 0.00 0.00 0.00 35 1010.9
20220812180100 32 51 8.0 19.3 0.00 0.00 0.00 37 1011.2
20220812174557 32 73 14.5 22.5 0.00 0.00 0.00 35 1011.5
20220812173051 32 28 14.5 27.4 0.00 0.00 0.00 37 1011.5
20220812171548 32 26 16.1 24.1 0.00 0.00 0.00 38 1011.6
20220812170054 31 42 12.9 22.5 0.00 0.00 0.00 40 1011.8
20220812164545 30 105 8.0 17.7 0.00 0.00 0.00 41 1011.9
20220812163100 29 12 9.7 20.9 0.00 0.00 0.00 44 1012.0